Regional Weather Roundup
Issued by NWS

Current Version | Previous Version | Text Only | Print | Product List | Glossary On
Versions: 1 2 3 4 5 6 7 8 9 10 11 12 13 14 15 16 17 18 19 20 21 22 23 24 25 26 27 28 29 30 31 32 33 34 35 36 37 38 39 40 41 42 43 44 45 46 47 48 49 50
526
ASUS43 KOAX 191610
RWRNE

WEATHER ROUNDUP FOR NEBRASKA
NATIONAL WEATHER SERVICE OMAHA NE
1000 AM CST FRI JAN 19 2018

NOTES: SATELLITE DATA IS BEING USED TO AUGMENT CLOUD COVER ABOVE
       12000 FEET.
       "FAIR" INDICATES FEW OR NO CLOUDS BELOW 12,000 FEET WITH NO
       SIGNIFICANT WEATHER AND/OR OBSTRUCTIONS TO VISIBILITY.


NEZ001>004-019>022-054>056-191700-
NEBRASKA PANHANDLE

CITY           SKY/WX    TMP DP  RH WIND       PRES   REMARKS
SCOTTSBLUFF    CLOUDY    34  27  75 N7        29.74R WCI  28
ALLIANCE       CLOUDY    34  29  82 SW6       29.71R WCI  29
CHADRON        CLOUDY    53  26  35 W20       29.61S
GORDON         FAIR      45  28  51 SW10      29.65S
KIMBALL        CLOUDY    43  22  44 NW7       29.76R
SIDNEY         CLOUDY    38  23  55 NW9       29.74S WCI  31
$$

NEZ057>060-069>072-079>082-191700-
SOUTHWEST NEBRASKA

CITY           SKY/WX    TMP DP  RH WIND       PRES   REMARKS
NORTH PLATTE   CLOUDY    34  27  75 NW6       29.73R WCI  29
IMPERIAL       CLOUDY    36  25  64 CALM      29.72F
LEXINGTON      CLOUDY    35  30  82 W5        29.71F WCI  30
MCCOOK         CLOUDY    35  24  64 W5        29.74S WCI  31
OGALLALA       CLOUDY    33  26  75 SW8       29.73R WCI  26
$$

NEZ005>010-023>029-035>040-094-191700-
NORTH CENTRAL NEBRASKA

CITY           SKY/WX    TMP DP  RH WIND       PRES   REMARKS
VALENTINE      CLOUDY    47  30  51 W10       29.62R
AINSWORTH      CLOUDY    44  32  62 W9        29.63R
BROKEN BOW     CLOUDY    44  25  47 SW6       29.68R
O`NEILL        CLOUDY    43  32  64 SW7       29.63S
ORD            CLOUDY    34  28  79 E7        29.66S WCI  28
THEDFORD       CLOUDY    46  28  50 SW5       29.66F
$$

NEZ041-046>049-061>064-073>077-083>087-191700-
SOUTH CENTRAL NEBRASKA

CITY           SKY/WX    TMP DP  RH WIND       PRES   REMARKS
GRAND ISLAND   CLOUDY    40  26  57 SW9       29.71S WCI  34
AURORA         CLOUDY    38  24  57 SW15      29.71S WCI  30
HASTINGS       CLOUDY    36  22  56 SW9       29.73S WCI  29
HEBRON         CLOUDY    37  23  57 SW9       29.80R WCI  30
HOLDREGE       CLOUDY    41  25  53 SW7       29.72S
KEARNEY        CLOUDY    35  25  66 SW10      29.71F WCI  27
YORK           CLOUDY    37  25  60 S14       29.72F WCI  29
$$

NEZ011>018-030>034-042>045-191700-
NORTHEAST NEBRASKA

CITY           SKY/WX    TMP DP  RH WIND       PRES   REMARKS
NORFOLK        CLOUDY    39  28  64 S5        29.64S
ALBION         CLOUDY    38  29  69 SE5       29.68R WCI  35
BLAIR          CLOUDY    38  26  61 S17       29.72R WCI  28
COLUMBUS       CLOUDY    39  25  57 S8        29.71S WCI  33
FREMONT        CLOUDY    38  24  57 S8        29.73S WCI  32
TEKAMAH        CLOUDY    38  25  59 S16       29.71S WCI  29
WAYNE          CLOUDY    39  30  69 SW13      29.64F WCI  32
$$

NEZ050>053-065>068-078-088>093-191700-
SOUTHEAST NEBRASKA

CITY           SKY/WX    TMP DP  RH WIND       PRES   REMARKS
LINCOLN        CLOUDY    40  23  50 S10       29.77S WCI  33
OMAHA EPPLEY   CLOUDY    35  25  66 S14       29.75S WCI  26
BEATRICE       CLOUDY    35  26  68 S14       29.80S WCI  26
FALLS CITY     CLOUDY    36  23  59 S12       29.85R WCI  28
NEBRASKA CITY  CLOUDY    37  27  68 SW16      29.79S WCI  27
PLATTSMOUTH    CLOUDY    36  27  69 S15       29.77S WCI  26
$$

NEZ044-045-051>053-067-191700-
OMAHA AREA

CITY           SKY/WX    TMP DP  RH WIND       PRES   REMARKS
OMAHA EPPLEY   CLOUDY    35  25  66 S14       29.75S WCI  26
BLAIR          CLOUDY    38  26  61 S17       29.72R WCI  28
FREMONT        CLOUDY    38  24  57 S8        29.73S WCI  32
MILLARD        CLOUDY    40  26  59 S10       29.75S WCI  33
OFFUTT AFB     CLOUDY    35  25  65 S9        29.76S WCI  28
PLATTSMOUTH    CLOUDY    36  27  69 S15       29.77S WCI  26
WAHOO          FAIR      39  22  51 S7        29.73S WCI  34
$$




USA.gov is the U.S. government's official web portal to all federal, state and local government web resources and services.